Вернуться в каталог

STARLINK-36525

АктивенСвязьVLEO
NORAD 67450·PAYLOAD·🇺🇸 United States

Запущен Jan 14, 2026 с Cape Canaveral Space Force Station

Loading…

Ближайшие Пролёты (ближайшие 24 часа)

TLE

СвежийSource: CelesTrak SupGP

Эпоха: Sep 14, 2026, 21:07 UTC

1 67450C 26008F   26257.88034722  .00030452  00000+0  11016-2 0  2575
2 67450  43.0029 216.8710 0001087 260.8858 162.8740 15.27603613    13

Отслеживайте STARLINK-36525 в реальном времени с AllMySat

Download on the App Store